Tiempo atmosférico en la estación meteorológica de El Pinar, Depósito, Santa Cruz de Tenerife (948 m.)



Fecha
DESCASC
Temp. máxima en grados centígrados (hora)
DESCASC
Temp. mínima en grados centígrados (hora)
DESCASC
Temp. media en grados centígrados
DESCASC
Racha de viento máxima en m/sg (hora)
DESCASC
Velocidad máxima media en intervalos de 10 minutos(hora)
DESCASC
Precipitaciones diarias en mm
DESCASC
Precipitaciones de 00:00 a 06:00 en mm
DESCASC
Precipitaciones de 06:00 a 12:00 en mm
DESCASC
Precipitaciones de 12:00 a 18:00 en mm
DESCASC
Precipitaciones de 18:00 a 24:00 en mm
DESCASC
18-08-2019 37.9 (16:40) 25.3 (08:00) 31.6 8.61 (21:20) 3.89 (21:20) 0 0 0 0 0
17-08-2019 37.5 (16:50) 24.8 (08:00) 31.1 9.72 (22:50) 4.44 (23:20) 0 0 0 0 0
16-08-2019 34.7 (14:30) 19.3 (03:10) 27 6.39 (10:10) 3.06 (11:50) 0 0 0 0 0
15-08-2019 28.3 (12:10) 17.1 (00:00) 22.7 6.11 (21:10) 3.33 (16:50) 0 0 0 0 0
14-08-2019 25 (17:10) 15.6 (00:00) 20.3 6.67 (14:20) 3.33 (14:20) 0 0 0 0 0
13-08-2019 28.5 (13:10) 19.4 (00:00) 23.9 13.61 (18:50) 4.44 (02:00) 0 0 0 0 0
12-08-2019 27.8 (15:30) 17.4 (00:00) 22.6 10.28 (21:00) 3.89 (21:10) 0 0 0 0 0
11-08-2019 27.6 (16:50) 18 (00:00) 22.8 11.11 (21:00) 5 (21:30) 0 0 0 0 0
10-08-2019 29.8 (10:50) 23.2 (00:00) 26.5 7.22 (22:30) 3.33 (14:40) 0 0 0 0 0
09-08-2019 30.4 (12:20) 20.5 (00:00) 25.4 5.28 (16:10) 3.33 (16:10) 0 0 0 0 0
08-08-2019 28.4 (15:40) 16.3 (00:00) 22.3 5 (14:40) 3.33 (16:20) 0 0 0 0 0
07-08-2019 25.2 (14:00) 11.8 (00:00) 18.5 9.17 (02:50) 3.89 (03:30) 0 0 0 0 0
06-08-2019 23.2 (16:40) 15.6 (00:00) 19.4 10.83 (22:40) 5 (23:40) 0 0 0 0 0
05-08-2019 24.8 (17:40) 14.9 (00:00) 19.8 11.67 (07:00) 5 (06:30) 0 0 0 0 0
04-08-2019 22.9 (15:00) 14.1 (00:00) 18.5 11.11 (21:40) 5 (22:20) 0 0 0 0 0
03-08-2019 25.7 (16:30) 15.9 (00:00) 20.8 10.56 (21:00) 4.17 (22:10) 0 0 0 0 0
02-08-2019 24.2 (18:20) 12 (00:00) 18.1 8.06 (14:40) 3.89 (14:40) 0 0 0 0 0
01-08-2019 22.1 (14:00) 13.5 (00:00) 17.8 10.28 (00:30) 4.72 (04:10) 0 0 0 0 0
31-07-2019 20.4 (16:30) 13.2 (00:00) 16.8 16.67 (10:50) 6.67 (05:10) 0 0 0 0 0
30-07-2019 22.7 (15:50) 14.4 (00:00) 18.6 13.89 (23:30) 5.56 (23:20) 0 0 0 0 0
29-07-2019 24.3 (10:10) 16.2 (00:00) 20.3 13.61 (23:40) 5.83 (19:20) 0 0 0 0 0
28-07-2019 27 (12:30) 18.8 (00:00) 22.9 11.11 (16:40) 4.44 (16:00) 0 0 0 0 0
27-07-2019 26.2 (09:30) 19.2 (00:00) 22.7 6.11 (00:10) 3.33 (16:40) 0 0 0 0 0
26-07-2019 30.8 (12:40) 20.7 (00:00) 25.8 11.67 (23:40) 4.72 (23:40) 0 0 0 0 0
25-07-2019 29.5 (16:00) 20 (00:00) 24.8 10.83 (23:00) 4.44 (23:00) 0 0 0 0 0
24-07-2019 27.9 (14:20) 19.5 (00:00) 23.7 10 (06:10) 4.44 (06:10) 0 0 0 0 0
23-07-2019 28 (17:30) 19 (00:00) 23.5 11.11 (10:20) 5 (10:20) 0 0 0 0 0
22-07-2019 29.4 (15:40) 17.6 (00:00) 23.5 6.94 (23:59) 3.33 (13:50) 0 0 0 0 0

Gráficas

Temp. máximas Temp. mínimas Temp. medias Precipitaciones Rachas de viento máximas Velocidades máximas media en intervalos de 10 minutos

Datos horarios

Fecha y hora oficial Temperatura (ºC) Velocidad del viento (km/h) Dirección del viento Racha (km/h) Dirección de racha Precipitación (mm) Presión (hPa) Tendencia (hPa) Humedad (%)
2019-08-20 23:00:00 23.1 3 Sudeste 22 Nordeste 0 -- -- 18
2019-08-20 22:00:00 24 5 Norte 19 Norte 0 -- -- 15
2019-08-20 21:00:00 24.8 4 Este 21 Norte 0 -- -- 17
2019-08-20 20:00:00 26.3 8 Norte 24 Norte 0 -- -- 14
2019-08-20 19:00:00 29.5 6 Nordeste 21 Nordeste 0 -- -- 8
2019-08-20 18:00:00 28.5 10 Este 21 Este 0 -- -- 18
2019-08-20 17:00:00 29.4 9 Este 22 Nordeste 0 -- -- 16
2019-08-20 16:00:00 30.2 9 Este 26 Este 0 -- -- 13
2019-08-20 15:00:00 30 10 Este 24 Este 0 -- -- 17
2019-08-20 14:00:00 30.8 10 Nordeste 29 Nordeste 0 -- -- 13
2019-08-20 13:00:00 30.3 9 Nordeste 25 Este 0 -- -- 11
2019-08-20 12:00:00 29.3 9 Nordeste 23 Este 0 -- -- 20
2019-08-20 11:00:00 30.9 9 Nordeste 28 Norte 0 -- -- 9
2019-08-20 10:00:00 30 4 Norte 13 Norte 0 -- -- 9
2019-08-20 09:00:00 26.8 4 Norte 18 Noroeste 0 -- -- 12
2019-08-20 08:00:00 24.1 9 Noroeste 18 Norte 0 -- -- 12
2019-08-20 07:00:00 24.3 9 Noroeste 16 Noroeste 0 -- -- 13
2019-08-20 06:00:00 25.4 9 Noroeste 18 Noroeste 0 -- -- 14
2019-08-20 05:00:00 26.3 9 Noroeste 22 Norte 0 -- -- 16
2019-08-20 04:00:00 26 9 Noroeste 27 Norte 0 -- -- 13
2019-08-20 03:00:00 26.7 10 Norte 26 Norte 0 -- -- 13
2019-08-20 02:00:00 27.2 13 Noroeste 26 Noroeste 0 -- -- 13
2019-08-20 01:00:00 27.8 8 Norte 27 Norte 0 -- -- 15
2019-08-20 00:00:00 28.4 10 Norte 27 Norte 0 -- -- 16
2019-08-19 23:00:00 28 9 Norte 19 Norte 0 -- -- 15
2019-08-19 22:00:00 28.7 8 Norte 21 Norte 0 -- -- 14
2019-08-19 21:00:00 29.3 7 Norte 20 Norte 0 -- -- 14
2019-08-19 20:00:00 31.8 6 Norte 18 Noroeste 0 -- -- 14
2019-08-19 19:00:00 34.3 6 Sur 19 Este 0 -- -- 11
2019-08-19 18:00:00 33.6 8 Este 18 Este 0 -- -- 12
2019-08-19 17:00:00 34.1 11 Este 24 Este 0 -- -- 11
2019-08-19 16:00:00 34.5 7 Este 23 Nordeste 0 -- -- 11
2019-08-19 15:00:00 34.3 11 Este 23 Este 0 -- -- 14
2019-08-19 14:00:00 35.8 9 Este 26 Norte 0 -- -- 11
2019-08-19 13:00:00 35.6 9 Este 26 Este 0 -- -- 11
2019-08-19 12:00:00 34.9 8 Este 36 Este 0 -- -- 12
2019-08-19 11:00:00 34.3 12 Nordeste 32 Nordeste 0 -- -- 10
2019-08-19 10:00:00 33 10 Nordeste 30 Nordeste 0 -- -- 10
2019-08-19 09:00:00 30.2 7 Este 25 Norte 0 -- -- 12
2019-08-19 08:00:00 28.7 9 Norte 30 Norte 0 -- -- 12
2019-08-19 07:00:00 28.6 10 Norte 29 Norte 0 -- -- 12
2019-08-19 06:00:00 28.8 9 Norte 27 Norte 0 -- -- 12
2019-08-19 05:00:00 29.2 10 Norte 24 Norte 0 -- -- 12
2019-08-19 04:00:00 29.1 9 Norte 24 Nordeste 0 -- -- 12
2019-08-19 03:00:00 28.9 8 Norte 22 Norte 0 -- -- 12
2019-08-19 02:00:00 29.3 12 Norte 27 Noroeste 0 -- -- 12
2019-08-19 01:00:00 30 13 Norte 31 Norte 0 -- -- 11
2019-08-19 00:00:00 30.1 12 Norte 29 Norte 0 -- -- 11
2019-08-18 23:00:00 30 12 Noroeste 27 Noroeste 0 -- -- 11
2019-08-18 22:00:00 30.1 8 Norte 31 Noroeste 0 -- -- 11
2019-08-18 21:00:00 30.4 13 Norte 30 Norte 0 -- -- 10
2019-08-18 20:00:00 31.8 13 Norte 28 Noroeste 0 -- -- 9
2019-08-18 19:00:00 36.1 6 Nordeste 19 Este 0 -- -- 8
2019-08-18 18:00:00 36.3 9 Este 23 Este 0 -- -- 8
2019-08-18 17:00:00 37.7 9 Este 21 Este 0 -- -- 8
2019-08-18 16:00:00 36.3 6 Este 22 Este 0 -- -- 9
2019-08-18 15:00:00 36.9 10 Este 28 Este 0 -- -- 10
2019-08-18 14:00:00 37.3 11 Este 27 Este 0 -- -- 8
2019-08-18 13:00:00 37.3 12 Sudeste 26 Sudeste 0 -- -- 8
2019-08-18 12:00:00 36.5 8 Este 25 Este 0 -- -- 8
2019-08-18 11:00:00 36.5 8 Este 19 Este 0 -- -- 9
2019-08-18 10:00:00 34.5 6 Este 15 Nordeste 0 -- -- 10
2019-08-18 09:00:00 29.2 5 Nordeste 15 Norte 0 -- -- 14
2019-08-18 08:00:00 25.3 7 Norte 12 Norte 0 -- -- 19
2019-08-18 07:00:00 26.6 6 Norte 17 Norte 0 -- -- 16
2019-08-18 06:00:00 28.2 10 Norte 28 Norte 0 -- -- 12
2019-08-18 05:00:00 28.2 6 Norte 20 Norte 0 -- -- 14
2019-08-18 04:00:00 29.4 10 Norte 23 Norte 0 -- -- 12
2019-08-18 03:00:00 28.8 5 Nordeste 16 Norte 0 -- -- 15
2019-08-18 02:00:00 28.5 7 Norte 22 Noroeste 0 -- -- 14
2019-08-18 01:00:00 30.3 8 Noroeste 23 Norte 0 -- -- 12
2019-08-18 00:00:00 30.1 14 Norte 31 Norte 0 -- -- 10
2019-08-17 23:00:00 30.5 13 Norte 35 Norte 0 -- -- 10
2019-08-17 22:00:00 30.5 14 Noroeste 33 Nordeste 0 -- -- 10
2019-08-17 21:00:00 31.1 12 Norte 27 Norte 0 -- -- 10
2019-08-17 20:00:00 33.3 6 Norte 21 Norte 0 -- -- 12
2019-08-17 19:00:00 34.9 7 Nordeste 18 Este 0 -- -- 10
2019-08-17 18:00:00 36 7 Nordeste 23 Nordeste 0 -- -- 10
2019-08-17 17:00:00 37 9 Este 30 Este 0 -- -- 11
2019-08-17 16:00:00 36.9 13 Sudeste 33 Sudeste 0 -- -- 10
2019-08-17 15:00:00 36.9 11 Sudeste 28 Sudeste 0 -- -- 9
2019-08-17 14:00:00 35.9 13 Este 32 Sudeste 0 -- -- 9
2019-08-17 13:00:00 36.4 12 Sudeste 22 Este 0 -- -- 12
2019-08-17 12:00:00 35.9 12 Sudeste 22 Sudeste 0 -- -- 12
2019-08-17 11:00:00 35.3 9 Este 20 Sudeste 0 -- -- 13
2019-08-17 10:00:00 34.1 9 Este 21 Este 0 -- -- 13
2019-08-17 09:00:00 27.5 4 Nordeste 10 Norte 0 -- -- 21
2019-08-17 08:00:00 24.8 7 Norte 9 Norte 0 -- -- 25
2019-08-17 07:00:00 25.2 6 Norte 9 Norte 0 -- -- 24
2019-08-17 06:00:00 25.9 5 Norte 15 Norte 0 -- -- 23
2019-08-17 05:00:00 25.8 8 Norte 14 Norte 0 -- -- 23
2019-08-17 04:00:00 25.3 7 Norte 13 Norte 0 -- -- 25
2019-08-17 03:00:00 25.2 7 Norte 10 Norte 0 -- -- 25
2019-08-17 02:00:00 25.1 8 Norte 11 Norte 0 -- -- 25
2019-08-17 01:00:00 25.3 7 Norte 11 Norte 0 -- -- 24
2019-08-17 00:00:00 25.8 6 Norte 10 Norte 0 -- -- 22
2019-08-16 23:00:00 26.1 6 Norte 11 Norte 0 -- -- 21
2019-08-16 22:00:00 26.7 6 Norte 10 Norte 0 -- -- 21
2019-08-16 21:00:00 28.9 4 Norte 8 Norte 0 -- -- 20
2019-08-16 20:00:00 31.2 3 Nordeste 14 Este 0 -- -- 16
2019-08-16 19:00:00 31.8 6 Este 14 Este 0 -- -- 15
2019-08-16 18:00:00 32.3 8 Este 17 Sudeste 0 -- -- 13
2019-08-16 17:00:00 32.2 9 Este 16 Sudeste 0 -- -- 14
2019-08-16 16:00:00 32.7 10 Este 18 Sudeste 0 -- -- 13
2019-08-16 15:00:00 33.8 9 Sudeste 21 Sudeste 0 -- -- 14
2019-08-16 14:00:00 33.7 8 Sudeste 20 Este 0 -- -- 14
2019-08-16 13:00:00 32.4 9 Este 18 Este 0 -- -- 14
2019-08-16 12:00:00 31.5 10 Este 22 Este 0 -- -- 13
2019-08-16 11:00:00 31.1 9 Este 23 Este 0 -- -- 12
2019-08-16 10:00:00 29.9 7 Este 22 Este 0 -- -- 14
2019-08-16 09:00:00 25.4 5 Nordeste 12 Este 0 -- -- 19
2019-08-16 08:00:00 20.8 6 Norte 10 Norte 0 -- -- 25
2019-08-16 07:00:00 20.4 7 Norte 11 Norte 0 -- -- 25
2019-08-16 06:00:00 20 8 Norte 11 Norte 0 -- -- 27
2019-08-16 05:00:00 19.5 7 Norte 12 Norte 0 -- -- 28
2019-08-16 04:00:00 19.5 7 Norte 10 Norte 0 -- -- 28
2019-08-16 03:00:00 19.4 7 Norte 10 Norte 0 -- -- 29
2019-08-16 02:00:00 19.8 8 Norte 9 Norte 0 -- -- 29
2019-08-16 01:00:00 20.3 7 Norte 10 Norte 0 -- -- 29
2019-08-16 00:00:00 20.9 7 Norte 14 Norte 0 -- -- 28
2019-08-15 23:00:00 22.1 8 Norte 17 Noroeste 0 -- -- 26
2019-08-15 22:00:00 22.4 8 Noroeste 22 Noroeste 0 -- -- 28
2019-08-15 21:00:00 23.6 10 Noroeste 20 Norte 0 -- -- 33
2019-08-15 20:00:00 26.6 2 Este 10 Sudeste 0 -- -- 31
2019-08-15 19:00:00 27.6 3 Sur 16 Sudeste 0 -- -- 30
2019-08-15 18:00:00 27.6 7 Sudeste 17 Sur 0 -- -- 33
2019-08-15 17:00:00 27.5 10 Sudeste 20 Sudeste 0 -- -- 35
2019-08-15 16:00:00 27.9 9 Sudeste 15 Sudeste 0 -- -- 26
2019-08-15 15:00:00 27.4 9 Sudeste 17 Sudeste 0 -- -- 24
2019-08-15 14:00:00 28 9 Sudeste 18 Sudeste 0 -- -- 33
2019-08-15 13:00:00 27.8 10 Sur 22 Sudeste 0 -- -- 32
2019-08-15 12:00:00 28.1 11 Sudeste 20 Sudeste 0 -- -- 28
2019-08-15 11:00:00 27.1 8 Este 15 Sudeste 0 -- -- 17
2019-08-15 10:00:00 26 5 Sudeste 9 Sudeste 0 -- -- 19
2019-08-15 09:00:00 21.9 0 Calma 10 Norte 0 -- -- 21
2019-08-15 08:00:00 18 5 Norte 11 Norte 0 -- -- 21
2019-08-15 07:00:00 17.6 5 Noroeste 10 Norte 0 -- -- 21
2019-08-15 06:00:00 17.7 6 Noroeste 15 Norte 0 -- -- 17
2019-08-15 05:00:00 18.4 8 Noroeste 17 Norte 0 -- -- 15
2019-08-15 04:00:00 18.8 9 Noroeste 17 Noroeste 0 -- -- 16
2019-08-15 03:00:00 17.9 7 Noroeste 13 Norte 0 -- -- 20
2019-08-15 02:00:00 17.1 6 Norte 12 Norte 0 -- -- 26
2019-08-15 01:00:00 17.3 6 Norte 13 Noroeste 0 -- -- 28
2019-08-15 00:00:00 18.9 8 Norte 19 Noroeste 0 -- -- 30
2019-08-14 23:00:00 18.2 6 Noroeste 13 Noroeste 0 -- -- 29
2019-08-14 22:00:00 17.8 5 Norte 10 Norte 0 -- -- 32
2019-08-14 21:00:00 19.5 4 Norte 7 Nordeste 0 -- -- 40
2019-08-14 20:00:00 21.2 4 Este 14 Sudeste 0 -- -- 56
2019-08-14 19:00:00 22.9 8 Sudeste 19 Sur 0 -- -- 50
2019-08-14 18:00:00 24.6 10 Sur 20 Sur 0 -- -- 41
2019-08-14 17:00:00 24.2 9 Sur 21 Sur 0 -- -- 45
2019-08-14 16:00:00 23.6 10 Sudeste 21 Sudeste 0 -- -- 50
2019-08-14 15:00:00 23.5 12 Sudeste 24 Sudeste 0 -- -- 49
2019-08-14 14:00:00 24.4 10 Sur 20 Sudeste 0 -- -- 44
2019-08-14 13:00:00 23.3 10 Sudeste 17 Sudeste 0 -- -- 52
2019-08-14 12:00:00 22.9 9 Sudeste 16 Sudeste 0 -- -- 53
2019-08-14 11:00:00 23.1 11 Sur 16 Sur 0 -- -- 49
2019-08-14 10:00:00 23 7 Sudeste 13 Sudeste 0 -- -- 41
2019-08-14 09:00:00 20 3 Sudeste 8 Sur 0 -- -- 31
2019-08-14 08:00:00 15.9 3 Nordeste 10 Noroeste 0 -- -- 18
2019-08-14 07:00:00 16.3 5 Noroeste 13 Noroeste 0 -- -- 17
2019-08-14 06:00:00 16.6 6 Noroeste 10 Norte 0 -- -- 18
2019-08-14 05:00:00 17.1 4 Norte 13 Noroeste 0 -- -- 15
2019-08-14 04:00:00 17.4 4 Noroeste 11 Noroeste 0 -- -- 13
2019-08-14 03:00:00 18.5 2 Noroeste 15 Noroeste 0 -- -- 14
2019-08-14 02:00:00 19.2 5 Norte 23 Noroeste 0 -- -- 15
2019-08-14 01:00:00 19.9 8 Norte 21 Norte 0 -- -- 19
2019-08-14 00:00:00 20.5 7 Norte 24 Este 0 -- -- 17
2019-08-13 23:00:00 20.4 9 Este 36 Norte 0 -- -- 20
2019-08-13 22:00:00 19.5 13 Norte 36 Norte 0 -- -- 30
2019-08-13 21:00:00 20.6 12 Norte 34 Norte 0 -- -- 28
2019-08-13 20:00:00 21.3 15 Noroeste 38 Noroeste 0 -- -- 37
2019-08-13 19:00:00 22.3 14 Norte 49 Norte 0 -- -- 49
2019-08-13 18:00:00 25 14 Norte 40 Norte 0 -- -- 34
2019-08-13 17:00:00 25.4 10 Sudeste 30 Este 0 -- -- 38
2019-08-13 16:00:00 25.3 10 Nordeste 30 Norte 0 -- -- 44
2019-08-13 15:00:00 26.4 11 Este 27 Nordeste 0 -- -- 35
2019-08-13 14:00:00 27.6 12 Este 30 Nordeste 0 -- -- 33
2019-08-13 13:00:00 28.1 9 Nordeste 34 Este 0 -- -- 27
2019-08-13 12:00:00 27.4 9 Nordeste 35 Nordeste 0 -- -- 26
2019-08-13 11:00:00 26.2 12 Este 32 Este 0 -- -- 27
2019-08-13 10:00:00 26.8 12 Nordeste 31 Nordeste 0 -- -- 18
2019-08-13 09:00:00 23.4 9 Nordeste 24 Norte 0 -- -- 25
2019-08-13 08:00:00 21.8 10 Nordeste 31 Nordeste 0 -- -- 27
2019-08-13 07:00:00 19.9 5 Este 19 Sur 0 -- -- 32
2019-08-13 06:00:00 20.7 7 Sudeste 24 Este 0 -- -- 22
2019-08-13 05:00:00 20.9 14 Norte 34 Norte 0 -- -- 22
2019-08-13 04:00:00 22 10 Norte 36 Norte 0 -- -- 30
2019-08-13 03:00:00 22.1 11 Norte 34 Norte 0 -- -- 39
2019-08-13 02:00:00 21.8 16 Norte 38 Nordeste 0 -- -- 30
2019-08-13 01:00:00 22.5 10 Norte 29 Noroeste 0 -- -- 37
2019-08-13 00:00:00 20.7 6 Sudoeste 19 Sudoeste 0 -- -- 21
2019-08-12 23:00:00 21.9 11 Nordeste 33 Norte 0 -- -- 23
2019-08-12 22:00:00 21.8 11 Norte 31 Norte 0 -- -- 16
2019-08-12 21:00:00 22.5 12 Norte 37 Norte 0 -- -- 15
2019-08-12 20:00:00 22.7 9 Sudeste 24 Sudeste 0 -- -- 20
2019-08-12 19:00:00 24 14 Sudeste 29 Sudeste 0 -- -- 20
2019-08-12 18:00:00 24.6 13 Sudeste 32 Este 0 -- -- 22
2019-08-12 17:00:00 25.7 12 Este 25 Este 0 -- -- 24
2019-08-12 16:00:00 27.1 10 Nordeste 32 Nordeste 0 -- -- 21
2019-08-12 15:00:00 27.5 8 Nordeste 29 Nordeste 0 -- -- 28
2019-08-12 14:00:00 26 9 Este 24 Nordeste 0 -- -- 36
2019-08-12 13:00:00 25.2 10 Nordeste 26 Este 0 -- -- 40
2019-08-12 12:00:00 23.8 11 Nordeste 28 Este 0 -- -- 44
2019-08-12 11:00:00 22.5 13 Norte 31 Noroeste 0 -- -- 55
2019-08-12 10:00:00 22.1 10 Este 27 Norte 0 -- -- 46
2019-08-12 09:00:00 22 8 Norte 28 Norte 0 -- -- 42
2019-08-12 08:00:00 17.8 10 Norte 22 Norte 0 -- -- 61
2019-08-12 07:00:00 17.6 8 Norte 25 Noroeste 0 -- -- 63
2019-08-12 06:00:00 18.6 8 Norte 20 Norte 0 -- -- 56
2019-08-12 05:00:00 19.3 9 Nordeste 31 Noroeste 0 -- -- 45
2019-08-12 04:00:00 19.3 10 Norte 24 Norte 0 -- -- 43
2019-08-12 03:00:00 20.6 8 Este 19 Nordeste 0 -- -- 32
2019-08-12 02:00:00 20.8 6 Este 28 Norte 0 -- -- 31
2019-08-12 01:00:00 20.8 9 Nordeste 31 Este 0 -- -- 28
2019-08-12 00:00:00 20.8 12 Nordeste 34 Norte 0 -- -- 25
2019-08-11 23:00:00 19.8 11 Norte 34 Norte 0 -- -- 24
2019-08-11 22:00:00 18.1 16 Norte 39 Noroeste 0 -- -- 57
2019-08-11 21:00:00 19.5 14 Norte 40 Noroeste 0 -- -- 53
2019-08-11 20:00:00 22.4 9 Norte 23 Noroeste 0 -- -- 50
2019-08-11 19:00:00 23.8 10 Noroeste 37 Oeste 0 -- -- 50
2019-08-11 18:00:00 23.8 13 Noroeste 36 Noroeste 0 -- -- 55
2019-08-11 17:00:00 27.1 12 Noroeste 35 Noroeste 0 -- -- 44
2019-08-11 16:00:00 26.8 8 Sur 17 Noroeste 0 -- -- 54
2019-08-11 15:00:00 24.6 14 Oeste 33 Noroeste 0 -- -- 53
2019-08-11 14:00:00 25.4 8 Sur 27 Sudeste 0 -- -- 50
2019-08-11 13:00:00 26 7 Este 23 Este 0 -- -- 45
2019-08-11 12:00:00 23.6 6 Sudeste 23 Este 0 -- -- 61
2019-08-11 11:00:00 22.2 14 Sudeste 38 Este 0 -- -- 67
2019-08-11 10:00:00 20.8 10 Nordeste 28 Norte 0 -- -- 69
2019-08-11 09:00:00 21.5 10 Norte 37 Norte 0 -- -- 60
2019-08-11 08:00:00 20.1 5 Noroeste 29 Noroeste 0 -- -- 52
2019-08-11 07:00:00 20.4 13 Norte 33 Noroeste 0 -- -- 50
2019-08-11 06:00:00 22.3 8 Nordeste 22 Este 0 -- -- 42
2019-08-11 05:00:00 22.6 6 Nordeste 29 Este 0 -- -- 36
2019-08-11 04:00:00 22.5 8 Norte 19 Este 0 -- -- 33
2019-08-11 03:00:00 22.9 7 Este 19 Este 0 -- -- 36
2019-08-11 02:00:00 23 5 Este 12 Este 0 -- -- 33
2019-08-11 01:00:00 24.7 2 Nordeste 22 Este 0 -- -- 26
2019-08-11 00:00:00 25.8 5 Nordeste 25 Noroeste 0 -- -- 19
2019-08-10 23:00:00 24.9 7 Norte 26 Noroeste 0 -- -- 18
2019-08-10 22:00:00 25.2 5 Este 15 Noroeste 0 -- -- 14
2019-08-10 21:00:00 25.3 4 Sur 15 Sur 0 -- -- 18
2019-08-10 20:00:00 25.9 4 Sudeste 12 Sudeste 0 -- -- 32
2019-08-10 19:00:00 26.8 7 Sudeste 12 Sudoeste 0 -- -- 44
2019-08-10 18:00:00 26.1 6 Sur 14 Sur 0 -- -- 47
2019-08-10 17:00:00 27 7 Sur 19 Sur 0 -- -- 51
2019-08-10 16:00:00 28 7 Sur 19 Sudeste 0 -- -- 50
2019-08-10 15:00:00 28.3 11 Sur 21 Sur 0 -- -- 44
2019-08-10 14:00:00 28.2 8 Sur 17 Sudeste 0 -- -- 44
2019-08-10 13:00:00 28.6 8 Sudeste 16 Sur 0 -- -- 33
2019-08-10 12:00:00 29.6 7 Sudeste 15 Sudeste 0 -- -- 30
2019-08-10 11:00:00 29.5 10 Sur 18 Sudeste 0 -- -- 27
2019-08-10 10:00:00 29.1 7 Sudeste 15 Sur 0 -- -- 30
2019-08-10 09:00:00 26.3 4 Sudeste 7 Sur 0 -- -- 25
2019-08-10 08:00:00 23.2 3 Este 10 Nordeste 0 -- -- 28
2019-08-10 07:00:00 23.4 2 Oeste 6 Sur 0 -- -- 32
2019-08-10 06:00:00 23.8 2 Norte 10 Sudeste 0 -- -- 31
2019-08-10 05:00:00 24.2 0 Calma 7 Este 0 -- -- 27
2019-08-10 04:00:00 24.9 2 Nordeste 12 Nordeste 0 -- -- 27
2019-08-10 03:00:00 26.4 4 Norte 15 Noroeste 0 -- -- 25
2019-08-10 02:00:00 25 3 Noroeste 9 Oeste 0 -- -- 20
2019-08-10 01:00:00 24.5 3 Sudeste 6 Noroeste 0 -- -- 20
2019-08-10 00:00:00 24.3 2 Nordeste 7 Este 0 -- -- 20
2019-08-09 23:00:00 24 0 Calma 5 Norte 0 -- -- 17
2019-08-09 22:00:00 23.7 0 Calma 5 Noroeste 0 -- -- 16
2019-08-09 21:00:00 24.6 2 Norte 5 Este 0 -- -- 21
2019-08-09 20:00:00 25.9 2 Sur 12 Sudeste 0 -- -- 20
2019-08-09 19:00:00 26.5 5 Sudeste 13 Sudeste 0 -- -- 48
2019-08-09 18:00:00 27.8 7 Sur 17 Sudeste 0 -- -- 41
2019-08-09 17:00:00 29.4 10 Sur 19 Sur 0 -- -- 33
2019-08-09 16:00:00 28.7 11 Sur 18 Sudeste 0 -- -- 42
2019-08-09 15:00:00 30.4 8 Sur 19 Sudeste 0 -- -- 18
2019-08-09 14:00:00 29.5 8 Sur 18 Sur 0 -- -- 19
2019-08-09 13:00:00 29.8 10 Sudeste 16 Sudeste 0 -- -- 20
2019-08-09 12:00:00 30.3 8 Sur 14 Sur 0 -- -- 7
2019-08-09 11:00:00 29.7 9 Sudeste 15 Sudeste 0 -- -- 23
2019-08-09 10:00:00 28.7 6 Sudeste 12 Sudeste 0 -- -- 11
2019-08-09 09:00:00 24.8 0 Calma 6 Norte 0 -- -- 13
2019-08-09 08:00:00 21.9 4 Norte 7 Norte 0 -- -- 19
2019-08-09 07:00:00 21.2 6 Norte 8 Norte 0 -- -- 14
2019-08-09 06:00:00 21.3 5 Norte 7 Norte 0 -- -- 14
2019-08-09 05:00:00 21.1 3 Norte 8 Norte 0 -- -- 15
2019-08-09 04:00:00 20.6 5 Noroeste 7 Norte 0 -- -- 15
2019-08-09 03:00:00 20.5 6 Norte 8 Norte 0 -- -- 14
2019-08-09 02:00:00 20.7 4 Noroeste 8 Noroeste 0 -- -- 16
2019-08-09 01:00:00 21.1 3 Norte 8 Norte 0 -- -- 17
2019-08-09 00:00:00 21.3 4 Norte 6 Norte 0 -- -- 13
2019-08-08 23:00:00 21.5 3 Norte 8 Norte 0 -- -- 12
2019-08-08 22:00:00 21.9 4 Norte 6 Norte 0 -- -- 14
2019-08-08 21:00:00 24.1 3 Norte 10 Oeste 0 -- -- 16
2019-08-08 20:00:00 26.5 3 Sudoeste 15 Sur 0 -- -- 23
2019-08-08 19:00:00 27.6 5 Sudoeste 15 Sudeste 0 -- -- 17
2019-08-08 18:00:00 27.5 6 Sur 16 Sur 0 -- -- 38
2019-08-08 17:00:00 27.5 8 Sur 18 Sur 0 -- -- 19
2019-08-08 16:00:00 28 9 Sur 17 Sur 0 -- -- 28
2019-08-08 15:00:00 27.3 10 Sudeste 18 Sur 0 -- -- 23
2019-08-08 14:00:00 27.6 8 Sur 17 Sudeste 0 -- -- 21
2019-08-08 13:00:00 27.6 8 Sudeste 16 Sudeste 0 -- -- 25
2019-08-08 12:00:00 26.5 8 Sudeste 15 Sudeste 0 -- -- 18
2019-08-08 11:00:00 24.8 7 Sudeste 14 Sudeste 0 -- -- 28
2019-08-08 10:00:00 24.3 6 Este 15 Este 0 -- -- 31
2019-08-08 09:00:00 20.5 0 Calma 9 Norte 0 -- -- 21
2019-08-08 08:00:00 16.8 6 Norte 10 Norte 0 -- -- 22
2019-08-08 07:00:00 16.8 7 Norte 9 Norte 0 -- -- 19
2019-08-08 06:00:00 16.6 7 Norte 9 Noroeste 0 -- -- 16
2019-08-08 05:00:00 16.4 6 Norte 9 Norte 0 -- -- 18
2019-08-08 04:00:00 16.8 6 Norte 9 Norte 0 -- -- 27
2019-08-08 03:00:00 16.7 7 Norte 11 Norte 0 -- -- 20
2019-08-08 02:00:00 16.5 8 Norte 13 Norte 0 -- -- 19
2019-08-08 01:00:00 16.3 8 Norte 11 Norte 0 -- -- 21
2019-08-08 00:00:00 16.6 7 Norte 10 Norte 0 -- -- 22
2019-08-07 23:00:00 16.8 8 Norte 10 Norte 0 -- -- 22
2019-08-07 22:00:00 17.4 6 Norte 10 Norte 0 -- -- 21
2019-08-07 21:00:00 19.3 5 Norte 9 Norte 0 -- -- 27
2019-08-07 20:00:00 22 0 Calma 9 Sur 0 -- -- 32
2019-08-07 19:00:00 21.9 3 Sur 17 Este 0 -- -- 69
2019-08-07 18:00:00 22.9 8 Este 17 Sudeste 0 -- -- 63
2019-08-07 17:00:00 19.8 9 Este 17 Este 0 -- -- 78
2019-08-07 16:00:00 22.2 10 Sudeste 17 Sur 0 -- -- 63
2019-08-07 15:00:00 24.8 10 Sur 18 Sur 0 -- -- 51
2019-08-07 14:00:00 25.2 12 Sudeste 21 Este 0 -- -- 43
2019-08-07 13:00:00 24.3 10 Sudeste 20 Sudeste 0 -- -- 35
2019-08-07 12:00:00 23.5 10 Este 20 Este 0 -- -- 38
2019-08-07 11:00:00 23.2 10 Este 19 Sudeste 0 -- -- 43
2019-08-07 10:00:00 21.9 8 Este 14 Este 0 -- -- 48
2019-08-07 09:00:00 16.2 3 Norte 10 Noroeste 0 -- -- 57
2019-08-07 08:00:00 13.2 7 Norte 16 Norte 0 -- -- 72
2019-08-07 07:00:00 12.6 5 Norte 13 Norte 0 -- -- 73
2019-08-07 06:00:00 12.6 8 Norte 16 Norte 0 -- -- 74
2019-08-07 05:00:00 12.9 6 Noroeste 9 Noroeste 0 -- -- 89
2019-08-07 04:00:00 15.2 4 Este 31 Nordeste 0 -- -- 89
2019-08-07 03:00:00 15.4 10 Nordeste 33 Nordeste 0 -- -- 89
2019-08-07 02:00:00 15.3 10 Norte 28 Norte 0 -- -- 77
2019-08-07 01:00:00 15.3 12 Norte 31 Norte 0 -- -- 75
2019-08-07 00:00:00 15.6 13 Noroeste 39 Noroeste 0 -- -- 74
2019-08-06 23:00:00 16 16 Noroeste 39 Noroeste 0 -- -- 81
2019-08-06 22:00:00 16.2 15 Norte 29 Noroeste 0 -- -- 77
2019-08-06 21:00:00 17 8 Norte 30 Norte 0 -- -- 71
2019-08-06 20:00:00 18.2 15 Norte 37 Noroeste 0 -- -- 70
2019-08-06 19:00:00 21.9 13 Norte 33 Norte 0 -- -- 58
2019-08-06 18:00:00 22.5 9 Noroeste 30 Norte 0 -- -- 56
2019-08-06 17:00:00 23 11 Nordeste 28 Nordeste 0 -- -- 52
2019-08-06 16:00:00 22.9 7 Nordeste 30 Noroeste 0 -- -- 53
2019-08-06 15:00:00 22.3 12 Nordeste 35 Este 0 -- -- 59
2019-08-06 14:00:00 22 7 Nordeste 23 Oeste 0 -- -- 63
2019-08-06 13:00:00 21.7 10 Sudeste 18 Este 0 -- -- 62
2019-08-06 12:00:00 22.4 8 Nordeste 23 Este 0 -- -- 54
2019-08-06 11:00:00 21.5 8 Norte 21 Nordeste 0 -- -- 55
2019-08-06 10:00:00 20 8 Nordeste 19 Nordeste 0 -- -- 57
2019-08-06 09:00:00 18.3 10 Nordeste 25 Norte 0 -- -- 67
2019-08-06 08:00:00 16.5 14 Norte 27 Norte 0 -- -- 69
2019-08-06 07:00:00 16.6 5 Norte 29 Norte 0 -- -- 66
2019-08-06 06:00:00 16.1 11 Norte 35 Noroeste 0 -- -- 70
2019-08-06 05:00:00 16.4 15 Noroeste 38 Noroeste 0 -- -- 72
2019-08-06 04:00:00 16.6 17 Noroeste 35 Oeste 0 -- -- 72
2019-08-06 03:00:00 17.3 9 Norte 30 Noroeste 0 -- -- 58
2019-08-06 02:00:00 17.5 6 Norte 29 Norte 0 -- -- 58
2019-08-06 01:00:00 17.3 13 Norte 33 Noroeste 0 -- -- 60
2019-08-06 00:00:00 17.3 16 Noroeste 38 Norte 0 -- -- 60
2019-08-05 23:00:00 17.4 13 Norte 32 Norte 0 -- -- 61
2019-08-05 22:00:00 18.3 9 Norte 30 Norte 0 -- -- 54
2019-08-05 21:00:00 18.3 11 Norte 38 Norte 0 -- -- 56
2019-08-05 20:00:00 20.4 9 Norte 27 Norte 0 -- -- 56
2019-08-05 19:00:00 23.2 8 Nordeste 33 Nordeste 0 -- -- 38
2019-08-05 18:00:00 24.6 10 Nordeste 28 Este 0 -- -- 33
2019-08-05 17:00:00 24.1 9 Este 28 Norte 0 -- -- 37
2019-08-05 16:00:00 24.6 10 Norte 30 Nordeste 0 -- -- 38
2019-08-05 15:00:00 23.6 11 Nordeste 28 Nordeste 0 -- -- 38
2019-08-05 14:00:00 23.4 8 Nordeste 33 Nordeste 0 -- -- 47
2019-08-05 13:00:00 22.7 9 Nordeste 31 Noroeste 0 -- -- 48
2019-08-05 12:00:00 21.1 10 Nordeste 40 Noroeste 0 -- -- 58
2019-08-05 11:00:00 19.4 11 Este 30 Nordeste 0 -- -- 68
2019-08-05 10:00:00 17.5 13 Nordeste 39 Nordeste 0 -- -- 81
2019-08-05 09:00:00 17 9 Norte 36 Noroeste 0 -- -- 79
2019-08-05 08:00:00 15.3 13 Noroeste 37 Noroeste 0 -- -- 82
2019-08-05 07:00:00 14.9 15 Norte 42 Norte 0 -- -- 84
2019-08-05 06:00:00 15.2 9 Norte 39 Norte 0 -- -- 87
2019-08-05 05:00:00 15 9 Este 28 Nordeste 0 -- -- 81
2019-08-05 04:00:00 15.1 12 Norte 29 Norte 0 -- -- 88
2019-08-05 03:00:00 15.3 5 Nordeste 21 Norte 0 -- -- 84
2019-08-05 02:00:00 16.5 7 Nordeste 32 Norte 0 -- -- 69
2019-08-05 01:00:00 16.5 12 Norte 32 Norte 0 -- -- 70
2019-08-05 00:00:00 16.7 9 Nordeste 26 Noroeste 0 -- -- 66
2019-08-04 23:00:00 16 10 Norte 39 Norte 0 -- -- 72
2019-08-04 22:00:00 16.2 17 Norte 40 Norte 0 -- -- 78
2019-08-04 21:00:00 16.7 11 Este 33 Sudeste 0 -- -- 83
2019-08-04 20:00:00 17.5 9 Sudeste 37 Norte 0 -- -- 77
2019-08-04 19:00:00 20.1 7 Sudeste 23 Este 0 -- -- 65
2019-08-04 18:00:00 21.1 9 Nordeste 31 Este 0 -- -- 55
2019-08-04 17:00:00 22.2 7 Nordeste 23 Norte 0 -- -- 51
2019-08-04 16:00:00 22.6 9 Nordeste 28 Este 0 -- -- 49
2019-08-04 15:00:00 22.9 11 Norte 32 Norte 0 -- -- 52
2019-08-04 14:00:00 22.6 9 Norte 31 Norte 0 -- -- 46
2019-08-04 13:00:00 21.6 9 Nordeste 24 Norte 0 -- -- 53
2019-08-04 12:00:00 21.5 10 Norte 27 Norte 0 -- -- 57
2019-08-04 11:00:00 20.5 9 Nordeste 35 Norte 0 -- -- 51
2019-08-04 10:00:00 18.1 16 Norte 31 Norte 0 -- -- 67
2019-08-04 09:00:00 16.3 9 Este 33 Noroeste 0 -- -- 78
2019-08-04 08:00:00 14.4 9 Norte 32 Norte 0 -- -- 77
2019-08-04 07:00:00 14.5 11 Norte 30 Norte 0 -- -- 72
2019-08-04 06:00:00 14.1 8 Norte 35 Norte 0 -- -- 73
2019-08-04 05:00:00 14.5 14 Norte 36 Norte 0 -- -- 80
2019-08-04 04:00:00 14.7 11 Norte 38 Norte 0 -- -- 77
2019-08-04 03:00:00 15.3 5 Nordeste 16 Sudeste 0 -- -- 64
2019-08-04 02:00:00 15.8 10 Este 29 Sudeste 0 -- -- 62
2019-08-04 01:00:00 15.9 9 Este 29 Norte 0 -- -- 64
2019-08-04 00:00:00 16 9 Norte 24 Oeste 0 -- -- 61
2019-08-03 23:00:00 16.6 11 Norte 36 Norte 0 -- -- 56
2019-08-03 22:00:00 17 13 Norte 38 Norte 0 -- -- 57
2019-08-03 21:00:00 17.9 14 Norte 38 Norte 0 -- -- 53
2019-08-03 20:00:00 19.1 10 Norte 31 Noroeste 0 -- -- 58
2019-08-03 19:00:00 20.9 10 Noroeste 36 Noroeste 0 -- -- 56
2019-08-03 18:00:00 22.2 13 Noroeste 35 Norte 0 -- -- 52
2019-08-03 17:00:00 25.3 7 Noroeste 26 Norte 0 -- -- 41
2019-08-03 16:00:00 23.9 11 Este 22 Este 0 -- -- 51
2019-08-03 15:00:00 23.9 11 Sur 21 Este 0 -- -- 55
2019-08-03 14:00:00 24.8 6 Este 26 Noroeste 0 -- -- 48
2019-08-03 13:00:00 23.2 10 Sudeste 20 Este 0 -- -- 53
2019-08-03 12:00:00 22.1 12 Sudeste 23 Este 0 -- -- 62
2019-08-03 11:00:00 22.4 11 Este 19 Este 0 -- -- 45
2019-08-03 10:00:00 21 9 Sudeste 18 Sudeste 0 -- -- 60
2019-08-03 09:00:00 21.2 7 Nordeste 17 Nordeste 0 -- -- 42
2019-08-03 08:00:00 16.6 4 Este 17 Nordeste 0 -- -- 54
2019-08-03 07:00:00 16.1 5 Nordeste 15 Nordeste 0 -- -- 57
2019-08-03 06:00:00 16.5 4 Nordeste 17 Sudeste 0 -- -- 53
2019-08-03 05:00:00 17.7 2 Nordeste 20 Norte 0 -- -- 51
2019-08-03 04:00:00 18.3 6 Norte 23 Norte 0 -- -- 44
2019-08-03 03:00:00 18.7 6 Nordeste 23 Norte 0 -- -- 40
2019-08-03 02:00:00 17 4 Nordeste 15 Este 0 -- -- 35
2019-08-03 01:00:00 18.9 7 Nordeste 24 Este 0 -- -- 36
2019-08-03 00:00:00 18.7 6 Nordeste 21 Nordeste 0 -- -- 39
2019-08-02 23:00:00 19.6 6 Norte 21 Noroeste 0 -- -- 31
2019-08-02 22:00:00 19.1 7 Norte 19 Nordeste 0 -- -- 32
2019-08-02 21:00:00 19.8 6 Norte 15 Norte 0 -- -- 34
2019-08-02 20:00:00 21.9 7 Norte 19 Norte 0 -- -- 40
2019-08-02 19:00:00 24 4 Norte 18 Este 0 -- -- 40
2019-08-02 18:00:00 23.8 11 Sudeste 18 Este 0 -- -- 37
2019-08-02 17:00:00 23.3 9 Sur 16 Sur 0 -- -- 55
2019-08-02 16:00:00 21.2 8 Sudeste 19 Sudeste 0 -- -- 64
2019-08-02 15:00:00 19.6 11 Este 29 Este 0 -- -- 69
2019-08-02 14:00:00 20.3 11 Sudeste 21 Sudeste 0 -- -- 63
2019-08-02 13:00:00 19.5 13 Sudeste 23 Sudeste 0 -- -- 70
2019-08-02 12:00:00 19.8 9 Sudeste 18 Sudeste 0 -- -- 66
2019-08-02 11:00:00 19.2 6 Sur 17 Sur 0 -- -- 69
2019-08-02 10:00:00 17.9 5 Sur 12 Sur 0 -- -- 74
2019-08-02 09:00:00 15.4 3 Sudeste 9 Sur 0 -- -- 82
2019-08-02 08:00:00 12 0 Calma 8 Nordeste 0 -- -- 51
2019-08-02 07:00:00 12.2 3 Norte 6 Norte 0 -- -- 46
2019-08-02 06:00:00 13 3 Norte 5 Norte 0 -- -- 43
2019-08-02 05:00:00 14.4 3 Norte 20 Norte 0 -- -- 41
2019-08-02 04:00:00 14.9 6 Norte 14 Norte 0 -- -- 43
2019-08-02 03:00:00 14.5 0 Calma 9 Este 0 -- -- 35
2019-08-02 02:00:00 16.1 5 Nordeste 16 Nordeste 0 -- -- 34
2019-08-02 01:00:00 16.2 4 Norte 18 Nordeste 0 -- -- 30
2019-08-02 00:00:00 17.9 6 Norte 22 Norte 0 -- -- 27
2019-08-01 23:00:00 17.6 9 Norte 20 Norte 0 -- -- 29
2019-08-01 22:00:00 17.8 10 Norte 20 Norte 0 -- -- 25
2019-08-01 21:00:00 16.4 3 Norte 8 Sudoeste 0 -- -- 49
2019-08-01 20:00:00 18.9 2 Sudoeste 13 Sur 0 -- -- 71
2019-08-01 19:00:00 20.9 6 Sur 19 Sur 0 -- -- 63
2019-08-01 18:00:00 20.9 7 Sur 18 Sudeste 0 -- -- 63
2019-08-01 17:00:00 19.5 9 Sudeste 22 Este 0 -- -- 72
2019-08-01 16:00:00 19.4 10 Este 24 Sur 0 -- -- 68
2019-08-01 15:00:00 21.4 12 Sudeste 21 Sudeste 0 -- -- 59
2019-08-01 14:00:00 22.1 10 Sur 18 Sur 0 -- -- 55
2019-08-01 13:00:00 20.9 10 Sudeste 19 Sudeste 0 -- -- 57
2019-08-01 12:00:00 18.9 11 Sudeste 22 Este 0 -- -- 66
2019-08-01 11:00:00 17 9 Este 22 Este 0 -- -- 76
2019-08-01 10:00:00 16.7 9 Este 17 Sudeste 0 -- -- 75
2019-08-01 09:00:00 15.9 5 Sudeste 15 Norte 0 -- -- 79
2019-08-01 08:00:00 13.6 8 Norte 35 Noroeste 0 -- -- 75
2019-08-01 07:00:00 13.7 16 Norte 32 Norte 0 -- -- 80
2019-08-01 06:00:00 13.6 7 Norte 23 Nordeste 0 -- -- 73
2019-08-01 05:00:00 14 8 Norte 36 Noroeste 0 -- -- 75
2019-08-01 04:00:00 14.9 14 Norte 33 Norte 0 -- -- 68
2019-08-01 03:00:00 16.2 6 Nordeste 18 Este 0 -- -- 37
2019-08-01 02:00:00 15.5 6 Nordeste 22 Nordeste 0 -- -- 38
2019-08-01 01:00:00 15 14 Noroeste 37 Norte 0 -- -- 57
2019-08-01 00:00:00 14.3 17 Noroeste 40 Norte 0 -- -- 72
2019-07-31 23:00:00 14.6 7 Norte 30 Norte 0 -- -- 70
2019-07-31 22:00:00 14.9 15 Norte 43 Norte 0 -- -- 70
2019-07-31 21:00:00 15.6 10 Oeste 41 Noroeste 0 -- -- 73
2019-07-31 20:00:00 16.5 7 Norte 24 Noroeste 0 -- -- 74
2019-07-31 19:00:00 18.1 11 Norte 28 Noroeste 0 -- -- 66
2019-07-31 18:00:00 18.8 11 Nordeste 35 Norte 0 -- -- 64
2019-07-31 17:00:00 20.1 12 Nordeste 29 Nordeste 0 -- -- 56
2019-07-31 16:00:00 19.9 12 Nordeste 32 Noroeste 0 -- -- 58
2019-07-31 15:00:00 19.2 10 Este 32 Este 0 -- -- 61
2019-07-31 14:00:00 19.3 13 Nordeste 36 Nordeste 0 -- -- 60
2019-07-31 13:00:00 19.2 12 Nordeste 37 Noroeste 0 -- -- 62
2019-07-31 12:00:00 19 14 Noroeste 44 Noroeste 0 -- -- 60
2019-07-31 11:00:00 17.8 16 Norte 60 Norte 0 -- -- 64
2019-07-31 10:00:00 16.4 12 Nordeste 32 Este 0 -- -- 70
2019-07-31 09:00:00 15.4 7 Sudeste 45 Noroeste 0 -- -- 75
2019-07-31 08:00:00 13.8 12 Nordeste 46 Norte 0 -- -- 84
2019-07-31 07:00:00 13.4 16 Norte 43 Noroeste 0 -- -- 83
2019-07-31 06:00:00 13.5 13 Norte 53 Noroeste 0 -- -- 75
2019-07-31 05:00:00 14.2 23 Noroeste 53 Noroeste 0 -- -- 90
2019-07-31 04:00:00 14 14 Noroeste 46 Norte 0 -- -- 89
2019-07-31 03:00:00 14.4 18 Noroeste 52 Norte 0 -- -- 87
2019-07-31 02:00:00 14.1 19 Norte 47 Norte 0 -- -- 85
2019-07-31 01:00:00 13.9 16 Norte 36 Norte 0 -- -- 74
2019-07-31 00:00:00 14.4 11 Nordeste 50 Norte 0 -- -- 77
2019-07-30 23:00:00 15 14 Norte 37 Norte 0 -- -- 85
2019-07-30 22:00:00 14.7 14 Este 30 Este 0 -- -- 86
2019-07-30 21:00:00 15.4 12 Sudeste 28 Este 0 -- -- 84
2019-07-30 20:00:00 16.8 10 Este 29 Este 0 -- -- 72
2019-07-30 19:00:00 19 8 Este 29 Norte 0 -- -- 70
2019-07-30 18:00:00 19.9 10 Noroeste 42 Noroeste 0 -- -- 65
2019-07-30 17:00:00 21.3 14 Noroeste 33 Norte 0 -- -- 59
2019-07-30 16:00:00 22.5 9 Noroeste 34 Norte 0 -- -- 56
2019-07-30 15:00:00 21 13 Norte 44 Noroeste 0 -- -- 59
2019-07-30 14:00:00 21.2 8 Sudeste 35 Noroeste 0 -- -- 60
2019-07-30 13:00:00 20.6 13 Noroeste 35 Noroeste 0 -- -- 65
2019-07-30 12:00:00 19.5 15 Noroeste 42 Norte 0 -- -- 70
2019-07-30 11:00:00 17.5 11 Este 29 Noroeste 0 -- -- 81
2019-07-30 10:00:00 18.5 10 Nordeste 31 Nordeste 0 -- -- 76
2019-07-30 09:00:00 16.8 12 Norte 39 Norte 0 -- -- 84
2019-07-30 08:00:00 16 15 Norte 35 Norte 0 -- -- 83
2019-07-30 07:00:00 15.6 9 Norte 32 Norte 0 -- -- 79
2019-07-30 06:00:00 15.8 16 Noroeste 49 Noroeste 0 -- -- 85
2019-07-30 05:00:00 15.6 18 Noroeste 46 Norte 0 -- -- 84
2019-07-30 04:00:00 16.3 6 Este 28 Este 0 -- -- 76
2019-07-30 03:00:00 16.3 6 Sur 30 Noroeste 0 -- -- 70
2019-07-30 02:00:00 16.1 10 Norte 41 Nordeste 0 -- -- 77
2019-07-30 01:00:00 16.4 13 Norte 42 Norte 0 -- -- 75
2019-07-30 00:00:00 16.4 16 Norte 49 Noroeste 0 -- -- 75
2019-07-29 23:00:00 16.8 17 Norte 39 Norte 0 -- -- 71
2019-07-29 22:00:00 17.8 16 Norte 45 Norte 0 -- -- 60
2019-07-29 21:00:00 17.8 7 Nordeste 37 Norte 0 -- -- 52
2019-07-29 20:00:00 19 11 Norte 46 Norte 0 -- -- 47
2019-07-29 19:00:00 21.1 17 Noroeste 46 Noroeste 0 -- -- 48
2019-07-29 18:00:00 21.9 9 Sudeste 20 Norte 0 -- -- 51
2019-07-29 17:00:00 22.1 9 Sur 20 Sudeste 0 -- -- 53
2019-07-29 16:00:00 22.5 12 Sudeste 22 Nordeste 0 -- -- 49
2019-07-29 15:00:00 23.3 13 Sudeste 24 Sudeste 0 -- -- 45
2019-07-29 14:00:00 23 12 Sudeste 23 Sudeste 0 -- -- 44
2019-07-29 13:00:00 21.8 15 Sudeste 24 Sudeste 0 -- -- 54
2019-07-29 12:00:00 23.1 11 Este 24 Este 0 -- -- 44
2019-07-29 11:00:00 23.5 10 Este 22 Sudeste 0 -- -- 33
2019-07-29 10:00:00 24 6 Sudeste 26 Norte 0 -- -- 34
2019-07-29 09:00:00 21.8 12 Norte 28 Norte 0 -- -- 27
2019-07-29 08:00:00 21 9 Norte 30 Norte 0 -- -- 44
2019-07-29 07:00:00 19.2 6 Norte 19 Norte 0 -- -- 41
2019-07-29 06:00:00 19.5 10 Norte 29 Norte 0 -- -- 44
2019-07-29 05:00:00 19.9 11 Norte 29 Norte 0 -- -- 51
2019-07-29 04:00:00 20.1 5 Nordeste 22 Nordeste 0 -- -- 48
2019-07-29 03:00:00 19.7 6 Norte 15 Nordeste 0 -- -- 53
2019-07-29 02:00:00 20.5 5 Norte 22 Norte 0 -- -- 50
2019-07-29 01:00:00 19.9 8 Este 24 Nordeste 0 -- -- 57
2019-07-29 00:00:00 19.6 11 Este 26 Este 0 -- -- 56
2019-07-28 23:00:00 20 10 Este 24 Este 0 -- -- 56
2019-07-28 22:00:00 20 2 Norte 20 Nordeste 0 -- -- 56
2019-07-28 21:00:00 19.3 12 Norte 38 Noroeste 0 -- -- 66
2019-07-28 20:00:00 21.7 13 Norte 30 Norte 0 -- -- 60
2019-07-28 19:00:00 24.3 8 Este 30 Este 0 -- -- 49
2019-07-28 18:00:00 25.5 10 Noroeste 28 Noroeste 0 -- -- 48
2019-07-28 17:00:00 24.4 9 Norte 40 Noroeste 0 -- -- 55
2019-07-28 16:00:00 24.7 16 Noroeste 35 Noroeste 0 -- -- 56
2019-07-28 15:00:00 25.2 11 Sudeste 20 Sudeste 0 -- -- 57
2019-07-28 14:00:00 25.3 10 Sur 17 Sur 0 -- -- 58
2019-07-28 13:00:00 25.2 10 Sudeste 20 Este 0 -- -- 53
2019-07-28 12:00:00 26.2 7 Nordeste 26 Norte 0 -- -- 41
2019-07-28 11:00:00 26.5 11 Nordeste 23 Norte 0 -- -- 33
2019-07-28 10:00:00 24.7 8 Este 19 Este 0 -- -- 34
2019-07-28 09:00:00 23.1 6 Este 25 Norte 0 -- -- 45
2019-07-28 08:00:00 20.9 10 Norte 28 Nordeste 0 -- -- 50
2019-07-28 07:00:00 20.5 9 Nordeste 23 Norte 0 -- -- 51
2019-07-28 06:00:00 19.7 10 Norte 28 Norte 0 -- -- 56
2019-07-28 05:00:00 21.5 10 Norte 21 Norte 0 -- -- 19
2019-07-28 04:00:00 19 4 Norte 15 Nordeste 0 -- -- 12
2019-07-28 03:00:00 19.2 3 Norte 14 Norte 0 -- -- 12
2019-07-28 02:00:00 20.3 7 Norte 23 Noroeste 0 -- -- 15
2019-07-28 01:00:00 19.8 4 Norte 15 Nordeste 0 -- -- 16
2019-07-28 00:00:00 19.3 5 Norte 12 Este 0 -- -- 20
2019-07-27 23:00:00 20.1 3 Nordeste 6 Noroeste 0 -- -- 19
2019-07-27 22:00:00 21.3 4 Nordeste 7 Nordeste 0 -- -- 20
2019-07-26 11:00:00 -- -- -- -- -- -- -- -- --
2019-07-26 10:00:00 26.6 7 Nordeste 22 Norte 0 -- -- 30
2019-07-26 09:00:00 24.9 8 Este 26 Norte 0 -- -- 28
2019-07-26 08:00:00 22.4 8 Norte 22 Norte 0 -- -- 33
2019-07-26 07:00:00 21.5 4 Norte 32 Nordeste 0 -- -- 36
2019-07-26 06:00:00 21.3 10 Norte 28 Norte 0 -- -- 38
2019-07-26 05:00:00 21 12 Norte 30 Este 0 -- -- 39
2019-07-26 04:00:00 21.5 8 Norte 32 Noroeste 0 -- -- 40
2019-07-26 03:00:00 21.1 12 Norte 34 Norte 0 -- -- 41
2019-07-26 02:00:00 21.2 15 Noroeste 35 Noroeste 0 -- -- 41
2019-07-26 01:00:00 22.6 12 Norte 27 Norte 0 -- -- 30
2019-07-26 00:00:00 22.1 12 Norte 33 Norte 0 -- -- 27
2019-07-25 23:00:00 22.1 16 Norte 39 Norte 0 -- -- 30
2019-07-25 22:00:00 22.7 10 Norte 29 Norte 0 -- -- 18
2019-07-25 21:00:00 23.8 9 Norte 24 Noroeste 0 -- -- 22
2019-07-25 20:00:00 25.2 10 Norte 38 Norte 0 -- -- 22
2019-07-25 19:00:00 28.2 10 Norte 27 Norte 0 -- -- 18
2019-07-25 18:00:00 28.3 8 Nordeste 24 Sudeste 0 -- -- 12
2019-07-25 17:00:00 27.5 13 Este 23 Sudeste 0 -- -- 21
2019-07-25 16:00:00 29.5 12 Este 27 Este 0 -- -- 18
2019-07-25 15:00:00 28.3 12 Este 33 Sudeste 0 -- -- 18
2019-07-25 14:00:00 28.2 12 Este 24 Este 0 -- -- 16
2019-07-25 13:00:00 29 13 Este 27 Este 0 -- -- 15
2019-07-25 12:00:00 28.2 10 Este 25 Este 0 -- -- 12
2019-07-25 11:00:00 26.1 12 Sudeste 26 Este 0 -- -- 19
2019-07-25 10:00:00 24.9 6 Este 26 Nordeste 0 -- -- 19
2019-07-25 09:00:00 24.1 10 Este 22 Este 0 -- -- 13
2019-07-25 08:00:00 20.6 6 Nordeste 20 Este 0 -- -- 13
2019-07-25 07:00:00 20 8 Este 22 Este 0 -- -- 16
2019-07-25 06:00:00 20.9 12 Este 25 Este 0 -- -- 14
2019-07-25 05:00:00 21.2 6 Nordeste 26 Norte 0 -- -- 13
2019-07-25 04:00:00 21.2 11 Norte 29 Norte 0 -- -- 11
2019-07-25 03:00:00 21.2 10 Norte 26 Norte 0 -- -- 12
2019-07-25 02:00:00 21.1 6 Nordeste 17 Nordeste 0 -- -- 16
2019-07-25 01:00:00 21.4 8 Este 28 Norte 0 -- -- 19
2019-07-25 00:00:00 21.4 12 Norte 26 Norte 0 -- -- 14
2019-07-24 23:00:00 20.6 6 Norte 24 Norte 0 -- -- 13
2019-07-24 22:00:00 21.4 12 Norte 28 Norte 0 -- -- 20
2019-07-24 21:00:00 22.9 9 Norte 23 Norte 0 -- -- 22
2019-07-24 20:00:00 25.4 5 Nordeste 19 Norte 0 -- -- 14
2019-07-24 19:00:00 26.5 7 Este 22 Este 0 -- -- 18
2019-07-24 18:00:00 27.3 9 Este 22 Este 0 -- -- 17
2019-07-24 17:00:00 27.2 14 Este 24 Este 0 -- -- 17
2019-07-24 16:00:00 27.2 12 Este 23 Nordeste 0 -- -- 22
2019-07-24 15:00:00 27.3 11 Este 28 Este 0 -- -- 30
2019-07-24 14:00:00 27.2 11 Este 21 Este 0 -- -- 21
2019-07-24 13:00:00 26.3 10 Este 21 Este 0 -- -- 25
2019-07-24 12:00:00 25.4 12 Este 27 Este 0 -- -- 28
2019-07-24 11:00:00 26.4 9 Este 29 Este 0 -- -- 20
2019-07-24 10:00:00 25.3 8 Este 25 Este 0 -- -- 15
2019-07-24 09:00:00 22.3 9 Este 21 Este 0 -- -- 21
2019-07-24 08:00:00 19.5 6 Este 28 Este 0 -- -- 27
2019-07-24 07:00:00 20.7 9 Este 36 Norte 0 -- -- 19
2019-07-24 06:00:00 20.9 13 Norte 26 Noroeste 0 -- -- 16
2019-07-24 05:00:00 20.5 11 Norte 31 Nordeste 0 -- -- 15
2019-07-24 04:00:00 20.4 6 Norte 24 Norte 0 -- -- 16
2019-07-24 03:00:00 20 4 Norte 22 Norte 0 -- -- 17
2019-07-24 02:00:00 20.4 7 Norte 24 Norte 0 -- -- 17
2019-07-24 01:00:00 20.2 13 Noroeste 33 Norte 0 -- -- 18
2019-07-24 00:00:00 20.7 15 Norte 31 Norte 0 -- -- 16
2019-07-23 23:00:00 20.7 12 Norte 25 Noroeste 0 -- -- 20
2019-07-23 22:00:00 19.9 5 Nordeste 33 Noroeste 0 -- -- 19
2019-07-23 21:00:00 21 11 Norte 28 Norte 0 -- -- 21
2019-07-23 20:00:00 24 9 Norte 26 Nordeste 0 -- -- 12
2019-07-23 19:00:00 26.3 11 Nordeste 27 Este 0 -- -- 9
2019-07-23 18:00:00 27.7 8 Nordeste 30 Este 0 -- -- 9
2019-07-23 17:00:00 27.1 12 Este 25 Este 0 -- -- 15
2019-07-23 16:00:00 27.4 12 Este 27 Este 0 -- -- 19
2019-07-23 15:00:00 27.7 11 Este 31 Este 0 -- -- 16
2019-07-23 14:00:00 25.1 11 Este 29 Nordeste 0 -- -- 43
2019-07-23 13:00:00 24.4 14 Este 31 Este 0 -- -- 46
2019-07-23 12:00:00 27.6 12 Este 31 Norte 0 -- -- 13
2019-07-23 11:00:00 27.1 11 Norte 40 Norte 0 -- -- 11
2019-07-23 10:00:00 25.7 15 Norte 37 Norte 0 -- -- 9
2019-07-23 09:00:00 23.8 13 Norte 33 Norte 0 -- -- 11
2019-07-23 08:00:00 20.6 14 Norte 33 Norte 0 -- -- 10
2019-07-23 07:00:00 20.3 12 Noroeste 37 Norte 0 -- -- 18
2019-07-23 06:00:00 21.7 12 Norte 31 Norte 0 -- -- 8
2019-07-23 05:00:00 21.6 12 Norte 34 Norte 0 -- -- 10
2019-07-23 04:00:00 21 16 Norte 34 Norte 0 -- -- 13
2019-07-23 03:00:00 22.2 14 Noroeste 31 Norte 0 -- -- 7
2019-07-23 02:00:00 21.6 9 Norte 23 Norte 0 -- -- 9
2019-07-23 01:00:00 20.1 8 Norte 26 Norte 0 -- -- 15
2019-07-23 00:00:00 21 9 Norte 25 Norte 0 -- -- 11
2019-07-22 23:00:00 21.2 8 Norte 21 Noroeste 0 -- -- 7
2019-07-22 22:00:00 20.8 5 Nordeste 17 Nordeste 0 -- -- 10
2019-07-22 21:00:00 21.9 9 Norte 19 Noroeste 0 -- -- 21
2019-07-22 20:00:00 25.4 6 Norte 22 Norte 0 -- -- 14
2019-07-22 19:00:00 26.6 7 Este 14 Sudeste 0 -- -- 26
2019-07-22 18:00:00 27.7 9 Sudeste 16 Sudeste 0 -- -- 27
2019-07-22 17:00:00 28.4 9 Sudeste 23 Sur 0 -- -- 30
2019-07-22 16:00:00 29 8 Sur 17 Sur 0 -- -- 28
2019-07-22 15:00:00 26.4 9 Sudeste 22 Sur 0 -- -- 31
2019-07-22 14:00:00 27.5 12 Sudeste 22 Sudeste 0 -- -- 39
2019-07-22 13:00:00 27.8 9 Sur 19 Sur 0 -- -- 29
2019-07-22 12:00:00 24.7 6 Sudeste 14 Sudeste 0 -- -- 46
2019-07-22 11:00:00 25.6 6 Sudeste 13 Sudeste 0 -- -- 44
2019-07-22 10:00:00 26.8 7 Sudeste 19 Norte 0 -- -- 20
2019-07-22 09:00:00 24.1 5 Norte 21 Norte 0 -- -- 20
2019-07-22 08:00:00 20 9 Norte 20 Nordeste 0 -- -- 26
2019-07-22 07:00:00 18.8 8 Norte 18 Norte 0 -- -- 28
2019-07-22 06:00:00 17.8 6 Norte 13 Norte 0 -- -- 29
2019-07-22 05:00:00 18.9 6 Norte 20 Norte 0 -- -- 27
2019-07-22 04:00:00 19.9 8 Norte 20 Noroeste 0 -- -- 25
2019-07-22 03:00:00 19.3 9 Norte 20 Noroeste 0 -- -- 28
2019-07-22 02:00:00 18.7 3 Norte 14 Nordeste 0 -- -- 33
2019-07-22 01:00:00 19.3 5 Norte 13 Nordeste 0 -- -- 31
2019-07-22 00:00:00 20 6 Nordeste 16 Norte 0 -- -- 27